CAPE
0 1 11 14 0 24 21 0 9 5 0 27 42 40 7 0 0 390 476 428 586 553 504 947 930 773 702 652 708 632 473 378 404 400 343 271 458 876 558 13 0 0 0 0 24 51 101 349 489 686 856 998 1105 1146 1056 1002 1132 1191 1264 1523 1554 1618 1626
0 0 15 55 28 9 0 0 2 0 0 12 38 50 23 2 1 0 392 586 685 560 682 867 1134 896 797 760 725 793 690 526 560 482 357 257 288 549 920 378 20 0 0 0 4 39 71 199 391 655 881 1011 1106 1211 1211 1126 1224 1308 1299 1484 1497 1519 1599
38 28 22 34 78 27 29 24 0 0 17 3 5 45 25 0 0 66 438 430 672 566 716 832 989 881 1016 960 742 767 831 780 694 605 451 274 211 394 788 1048 308 2 0 0 0 11 57 91 330 664 916 1069 1156 1269 1325 1255 1298 1391 1379 1453 1526 1490 1502
32 32 15 29 32 26 8 0 6 0 0 7 5 13 17 1 3 21 64 482 732 738 973 940 1018 968 979 973 953 760 781 895 863 724 559 326 217 304 515 938 1096 123 1 0 0 2 35 73 242 681 978 1171 1275 1376 1500 1426 1446 1491 1471 1498 1638 1552 1514
36 37 16 5 15 1 19 19 8 0 0 7 2 6 7 25 28 5 272 421 582 897 886 968 1214 1079 1057 987 997 987 872 896 962 869 663 440 259 251 362 680 1217 1119 234 14 24 54 95 113 200 727 1036 1249 1374 1505 1563 1640 1672 1672 1604 1624 1708 1686 1634
56 27 0 12 37 23 10 4 18 0 0 0 4 14 42 41 23 77 1 180 919 930 781 1196 1315 1175 1165 1060 1024 1161 1090 914 1011 980 809 624 492 313 326 566 990 1321 1087 302 92 87 96 103 149 711 1023 1258 1410 1588 1646 1740 1851 1894 1773 1763 1828 1798 1762
41 10 4 0 18 26 38 32 194 344 0 0 0 10 26 27 39 197 272 630 858 817 806 1005 1190 1239 1240 1321 1249 1225 1256 1139 1003 946 972 855 668 567 558 636 910 1157 1378 728 264 117 98 110 260 688 999 1225 1387 1576 1704 1793 1952 2091 1980 1886 1906 1894 1872
6 5 0 5 0 16 8 246 293 366 403 295 0 0 6 38 198 16 263 552 797 582 753 861 1004 1041 1128 1320 1428 1316 1247 1280 1182 950 949 977 886 758 759 811 820 956 1135 1214 518 172 87 106 420 740 988 1192 1338 1526 1701 1809 1944 2162 2186 2019 1946 1971 1935
3 9 1 0 0 0 6 179 329 435 499 382 2 0 0 78 559 536 218 524 741 538 713 862 944 912 884 1084 1068 1134 1294 1258 1253 1072 770 813 920 778 850 828 804 782 839 952 799 296 18 12 234 774 1053 1209 1312 1473 1655 1825 1922 2135 2260 2148 2030 1998 1969
1 6 0 0 0 0 0 12 343 534 573 470 349 474 354 445 759 605 829 581 494 593 554 764 899 883 846 794 837 791 687 603 900 1034 974 590 713 700 716 903 902 708 618 596 712 616 465 514 206 522 833 1140 1232 1350 1516 1568 1899 2078 2194 2226 2091 2015 1958
0 0 0 0 132 0 37 174 264 617 727 685 722 681 799 750 634 618 760 614 556 531 507 658 890 806 800 764 746 657 740 708 639 685 697 860 1103 1084 824 674 809 720 680 610 491 486 573 673 592 464 741 1092 1276 1411 1209 1071 1220 1444 1754 2105 2096 2005 1923
0 0 0 0 110 23 0 482 575 706 878 840 685 705 753 636 545 635 733 610 594 509 506 582 672 565 550 498 501 509 470 437 432 577 613 953 1108 1231 1224 873 833 804 780 830 680 533 527 598 585 552 547 924 1325 1490 1519 1356 1178 1161 1252 1579 1967 1998 1960
0 0 0 27 2 50 439 606 675 751 894 863 885 830 612 486 541 794 690 653 589 606 485 454 429 493 501 504 533 514 446 449 512 579 827 975 987 1138 1147 926 843 897 910 996 945 861 876 692 737 628 618 656 800 1146 1520 1270 1222 1075 1240 1704 1874 1704 1740
0 0 0 77 343 373 381 446 503 756 931 965 913 821 812 734 661 690 630 564 420 450 352 331 333 528 593 641 695 608 575 629 572 525 623 723 853 908 942 1093 1127 1022 911 868 814 719 696 726 745 808 844 833 882 1010 1215 1430 1445 1305 1424 1764 1562 1365 1515
0 0 0 42 204 238 300 314 425 596 688 685 671 698 587 567 613 489 448 403 435 432 396 335 428 583 648 714 634 600 625 594 479 481 551 644 704 680 732 826 749 572 522 577 640 686 659 628 601 692 773 866 965 983 962 1047 1254 1366 1523 1806 1683 1502 1595
0 0 7 58 212 239 416 555 487 442 586 615 788 760 598 496 347 215 371 247 407 469 405 320 411 623 711 756 777 733 630 545 490 459 412 422 470 514 602 726 659 665 613 587 633 679 636 633 634 596 644 770 833 952 992 1037 1153 1401 1400 1701 1648 1508 1681
0 0 0 50 1 0 23 84 368 535 623 865 822 851 878 798 640 582 199 181 541 580 448 418 380 526 710 724 724 600 572 499 515 496 457 457 417 418 466 481 509 469 513 538 508 449 389 489 517 540 480 510 672 798 916 988 1055 1168 1491 1588 1494 1529 1778
0 0 0 0 0 2 10 61 374 601 704 668 748 952 1036 1019 906 681 792 773 810 689 400 454 400 416 541 712 728 629 507 471 422 433 403 405 392 407 473 494 501 512 537 507 523 538 510 549 548 623 563 465 480 632 776 911 1071 1280 1332 1220 1380 1546 1720
0 0 0 16 25 0 59 360 472 755 881 907 984 1014 1108 1123 1020 939 871 872 788 588 467 449 394 362 466 642 650 535 562 455 379 344 318 333 390 423 433 429 420 464 488 491 488 455 474 517 448 327 514 655 687 748 917 980 1091 1243 1091 1247 1279 1227 1317
0 0 0 14 47 274 80 254 484 450 385 277 332 390 574 870 1018 924 918 907 814 686 615 526 429 396 419 492 416 415 407 349 275 257 287 307 320 345 338 340 360 390 397 419 422 452 467 450 296 444 517 437 746 800 766 897 1083 1040 881 970 1100 1331 1493
14 0 50 48 135 151 141 160 48 58 81 49 38 162 366 441 560 870 908 934 877 801 643 555 457 394 391 373 369 344 326 340 308 264 270 224 207 230 142 163 206 165 149 17 2 0 0 0 200 279 264 347 639 751 741 684 775 668 648 781 787 614 877
0 30 142 204 107 122 106 133 106 74 198 317 125 503 424 180 442 653 818 885 845 747 652 586 519 422 392 279 229 292 257 274 306 251 255 196 160 172 113 69 101 68 0 0 0 0 0 0 0 0 92 221 336 604 732 743 857 877 805 774 658 579 729
0 25 113 110 73 51 154 68 39 63 310 417 52 22 4 47 424 658 710 784 809 764 688 558 499 455 263 150 269 298 313 252 163 205 189 139 100 133 149 76 0 0 0 0 0 0 0 0 0 0 78 133 186 258 260 467 653 624 728 680 609 597 598
0 0 0 18 0 280 185 190 140 104 29 36 3 5 12 291 486 806 793 726 759 758 707 664 578 452 273 227 265 310 339 209 172 145 86 53 44 66 73 18 0 0 0 0 0 0 0 0 0 0 0 0 121 144 166 206 108 233 217 258 270 324 309
512 344 168 123 218 244 276 301 187 194 60 0 0 10 0 69 667 825 888 823 784 682 651 628 611 507 407 293 256 345 356 203 154 62 16 10 2 0 0 0 0 0 0 0 0 0 0 0 0 0 0 0 0 58 132 220 310 295 299 304 320 306 340
254 330 338 83 394 179 198 203 178 213 0 0 0 23 253 176 611 1024 955 790 841 712 568 574 519 444 397 317 265 359 331 207 117 48 0 0 0 0 0 0 0 0 0 0 0 0 0 0 0 0 0 0 0 1 28 137 196 173 176 222 234 191 163
88 4 228 129 85 226 0 201 0 1 29 0 0 316 622 814 1031 1038 923 749 554 449 360 353 367 386 329 332 354 384 256 122 28 0 0 0 0 0 0 0 0 0 0 0 0 0 0 0 0 0 0 0 0 0 0 0 0 0 0 26 138 149 134
209 0 84 0 53 362 250 0 39 61 63 403 523 714 883 965 962 1089 898 793 513 396 291 349 376 384 378 348 341 263 136 0 0 0 0 0 0 0 0 0 0 0 0 0 0 0 0 0 0 0 0 0 0 0 0 0 0 0 0 0 0 0 0
0 10 0 230 257 442 309 89 386 390 427 593 750 856 794 792 829 974 946 666 572 405 329 307 306 308 73 247 214 134 0 0 0 0 0 0 0 0 0 0 0 0 0 0 0 0 0 0 0 0 0 0 0 0 0 0 0 0 0 0 0 0 0
0 69 242 340 308 396 440 431 441 567 691 740 737 742 766 726 841 997 936 814 590 454 362 253 0 0 0 0 0 0 0 0 0 0 0 0 0 0 0 0 0 0 0 0 0 0 0 0 0 0 0 0 0 0 0 0 0 0 0 0 0 0 0
0 257 45 346 435 436 545 612 662 744 763 737 740 803 865 962 981 1007 1009 852 722 589 502 386 168 0 0 0 0 0 0 0 0 0 0 0 0 0 0 0 0 0 0 0 0 0 0 0 0 0 0 0 0 0 0 0 0 0 0 0 0 0 0
0 0 0 354 396 459 498 544 607 572 618 737 889 1032 1115 1132 1117 1123 1062 972 858 739 683 550 394 69 0 0 0 0 0 0 0 0 0 0 0 0 0 0 0 0 0 0 0 0 0 0 0 0 0 0 0 0 0 0 0 0 0 0 0 0 0
18 10 2 306 351 365 370 358 370 420 570 772 1048 1201 1242 1228 1244 1223 1195 1106 1048 873 891 778 641 298 0 0 0 0 0 0 0 0 0 0 0 0 0 0 0 0 0 0 0 0 0 0 0 0 0 0 0 0 0 0 0 0 0 0 0 0 0
24 81 37 121 180 163 230 326 339 429 533 692 792 922 1034 1170 1215 1220 1136 1003 951 918 954 934 807 667 421 0 0 0 0 0 0 0 0 0 0 0 0 0 0 0 0 0 0 0 0 0 0 0 0 0 0 0 0 0 0 0 0 0 0 0 0
5 0 0 0 0 0 0 340 373 453 525 578 580 658 796 1012 1100 1149 1088 975 882 905 950 944 891 769 618 485 148 0 0 0 0 0 0 0 0 0 0 0 0 0 0 0 0 0 0 0 0 0 0 0 0 0 0 0 0 0 0 0 0 0 0
157 0 0 0 0 19 0 0 360 461 565 562 529 545 662 733 856 997 988 912 836 806 887 932 900 816 721 632 470 54 0 0 0 0 0 0 0 0 0 0 0 0 0 0 0 0 0 0 0 0 0 0 0 0 0 0 0 0 0 0 0 0 0
66 0 0 0 0 0 0 0 0 246 560 573 563 582 570 476 382 500 771 843 868 798 762 786 766 781 734 524 388 255 0 0 0 0 0 0 0 0 0 0 0 0 0 0 0 0 0 0 0 0 0 0 0 0 0 0 0 0 0 0 0 0 0
Wind_Speed
nan nan nan nan nan nan nan nan nan nan nan nan nan nan nan nan nan 21 22 22 20 22 19 19 21 21 17 12 11 8 7 8 11 10 9 11 12 13 22 nan nan nan nan nan nan nan 11 10 9 7 7 7 7 7 6 6 7 9 8 8 8 9 9
nan nan nan nan nan nan nan nan nan nan nan nan nan nan nan nan nan nan 24 19 19 23 17 21 24 26 19 14 11 9 8 8 8 8 8 10 11 10 20 25 nan nan nan nan nan nan nan 10 10 8 8 9 9 8 6 6 8 8 8 9 9 10 9
nan nan nan nan nan nan nan nan nan nan nan nan nan nan nan nan nan nan 24 21 19 19 19 26 28 27 23 17 11 11 9 7 6 6 6 8 7 8 18 23 22 nan nan nan nan nan nan nan 12 11 11 11 11 10 7 6 6 7 9 10 10 11 10
nan nan nan nan nan nan nan nan nan nan nan nan nan nan nan nan nan nan nan 26 23 24 22 24 25 25 20 17 12 9 8 6 6 5 5 5 5 2 12 19 20 18 nan nan nan nan nan nan 14 15 14 13 11 11 10 9 9 9 10 10 12 11 11
nan nan nan nan nan nan nan nan nan nan nan nan nan nan nan nan nan nan 26 26 25 23 24 25 26 26 25 22 15 14 11 8 5 5 4 2 2 5 8 13 17 19 18 nan nan nan nan 16 17 18 17 13 12 14 12 11 11 11 11 11 13 14 15
nan nan nan nan nan nan nan nan nan nan nan nan nan nan nan nan nan nan nan 27 25 29 29 27 27 27 29 32 27 24 23 17 11 8 5 4 5 6 6 8 12 18 21 21 nan nan nan 18 18 18 17 15 14 13 13 13 13 13 13 14 15 16 17
nan nan nan nan nan nan nan nan 39 38 nan nan nan nan nan nan nan 28 27 33 31 31 31 31 32 31 32 33 32 30 29 30 30 25 18 15 15 16 16 15 17 18 18 21 23 21 nan 17 17 18 19 18 16 14 14 14 14 13 15 15 17 18 18
nan nan nan nan nan nan nan 46 44 41 40 34 nan nan nan nan 30 nan 31 36 32 33 33 33 33 34 34 34 35 32 30 30 33 35 30 27 28 29 31 28 26 25 28 31 31 27 nan 20 19 19 19 19 19 18 16 15 14 15 16 18 20 20 19
nan nan nan nan nan nan nan 41 44 42 40 40 nan nan nan nan 34 32 34 35 35 33 33 33 36 39 42 41 38 35 34 33 33 35 32 30 28 27 29 25 22 24 31 37 39 43 nan nan 31 26 21 20 20 19 18 17 16 18 19 20 22 22 21
nan nan nan nan nan nan nan nan 47 47 47 46 39 34 37 35 38 41 41 37 34 34 35 37 39 40 42 41 38 36 34 34 33 34 33 31 32 34 34 32 31 29 28 32 35 37 42 43 41 43 42 38 32 28 27 25 21 21 22 23 22 22 22
nan nan nan nan 36 nan nan 44 50 50 48 43 38 36 38 37 35 43 42 41 39 44 44 42 42 40 40 40 39 38 36 34 32 32 32 31 27 28 32 31 30 31 33 34 34 36 38 36 35 36 36 36 36 33 35 39 41 38 33 29 25 23 22
nan nan nan nan 34 nan nan 42 47 51 51 45 48 42 34 32 37 39 41 45 40 43 42 41 41 41 39 37 36 36 35 34 32 30 31 31 27 27 30 32 31 31 31 30 32 34 37 36 34 36 37 35 35 32 30 30 34 32 29 32 34 32 26
nan nan nan nan nan nan 37 40 45 49 46 52 50 43 37 35 38 35 36 39 41 40 42 41 40 41 40 38 36 34 33 32 31 30 29 26 23 23 29 29 29 31 32 29 28 25 28 31 32 34 37 38 38 35 31 30 33 34 34 32 29 27 24
nan nan nan nan 40 35 39 42 44 43 44 47 45 46 45 43 40 36 32 37 42 41 42 41 38 39 39 38 35 32 35 35 32 30 27 23 23 25 26 26 28 30 32 30 27 25 27 29 33 36 37 37 37 36 36 34 34 36 37 35 32 29 29
nan nan nan nan 37 35 36 40 40 35 36 47 48 41 41 42 40 39 35 36 38 38 41 40 39 38 40 41 42 40 37 36 35 32 27 24 25 28 27 27 27 28 31 31 32 32 30 30 33 36 37 38 38 40 41 43 40 34 38 39 34 32 33
nan nan nan nan 34 36 36 36 35 34 38 47 48 44 41 39 37 35 35 39 35 34 39 41 40 42 45 44 43 40 38 38 36 32 29 26 25 26 27 28 28 27 28 31 34 36 34 32 34 35 37 38 41 43 46 48 45 37 34 38 37 34 34
nan nan nan nan nan nan nan nan 30 27 30 40 47 47 48 43 38 39 40 36 36 37 40 40 42 45 47 47 43 39 40 40 39 36 32 29 28 26 24 25 26 27 28 31 34 36 35 33 30 32 35 37 38 38 42 46 47 44 42 42 41 40 41
nan nan nan nan nan nan nan nan 25 22 26 35 49 47 45 45 43 37 36 36 37 39 41 41 42 44 45 46 43 42 40 41 41 40 37 34 31 29 27 26 26 26 26 29 32 34 35 35 36 32 31 36 35 35 37 39 44 45 44 44 44 44 43
nan nan nan nan nan nan nan 20 24 25 28 36 47 47 47 46 45 42 40 38 38 40 39 41 43 44 44 45 47 46 44 42 42 42 40 36 34 33 30 28 26 29 31 32 33 34 33 33 34 34 32 31 34 33 31 33 36 40 41 40 39 38 39
nan nan nan nan nan 20 nan 18 20 18 17 25 38 46 43 43 43 41 40 40 40 42 43 42 41 41 42 45 45 42 40 39 38 39 38 37 37 38 35 32 29 29 32 34 35 34 31 31 32 35 32 32 36 34 32 31 33 36 39 38 35 34 35
nan nan nan nan 21 23 20 18 nan nan nan nan nan 37 38 38 40 42 40 39 39 43 44 43 41 40 40 45 43 42 39 38 36 35 36 35 34 35 37 36 33 31 32 nan nan nan nan nan 30 31 29 28 32 33 33 31 32 35 38 39 35 32 33
nan nan 16 17 17 18 12 13 14 nan 18 17 21 33 37 40 41 42 41 39 38 40 43 43 43 46 44 44 43 42 42 41 40 36 33 32 32 33 34 nan 35 nan nan nan nan nan nan nan nan nan nan 31 31 31 30 29 28 31 36 35 31 30 30
nan nan 14 12 nan nan 14 nan nan nan 17 18 nan nan nan nan 36 38 40 38 38 39 41 42 46 48 48 45 44 44 46 47 44 42 39 36 35 35 33 nan nan nan nan nan nan nan nan nan nan nan nan 35 34 32 29 26 24 26 28 28 26 26 27
nan nan nan nan nan 13 14 11 14 15 nan nan nan nan nan 18 26 35 40 39 39 40 42 45 47 47 47 47 45 45 47 47 47 46 nan nan nan nan nan nan nan nan nan nan nan nan nan nan nan nan nan nan 34 33 32 28 26 23 21 21 21 22 25
9 11 7 7 7 8 10 11 11 14 nan nan nan nan nan nan 20 26 32 37 38 41 42 42 39 41 45 49 47 47 46 47 46 nan nan nan nan nan nan nan nan nan nan nan nan nan nan nan nan nan nan nan nan nan 31 31 28 24 20 19 20 20 22
9 7 9 nan 4 4 10 10 11 12 nan nan nan nan 14 16 15 18 22 27 31 33 33 34 34 35 38 43 47 47 45 44 42 nan nan nan nan nan nan nan nan nan nan nan nan nan nan nan nan nan nan nan nan nan nan 31 27 24 24 25 24 24 25
nan nan 11 9 nan 10 nan 11 nan nan nan nan nan 12 15 15 14 14 17 20 21 25 28 30 29 28 32 37 40 40 40 41 nan nan nan nan nan nan nan nan nan nan nan nan nan nan nan nan nan nan nan nan nan nan nan nan nan nan nan nan 27 27 28
12 nan nan nan nan 10 10 nan nan nan nan 8 8 12 12 13 14 13 14 15 16 19 22 23 24 24 26 29 32 35 36 nan nan nan nan nan nan nan nan nan nan nan nan nan nan nan nan nan nan nan nan nan nan nan nan nan nan nan nan nan nan nan nan
nan nan nan 7 8 10 12 nan 11 10 10 9 9 13 11 11 12 12 15 14 15 16 18 20 20 21 nan 23 25 29 nan nan nan nan nan nan nan nan nan nan nan nan nan nan nan nan nan nan nan nan nan nan nan nan nan nan nan nan nan nan nan nan nan
nan nan 10 10 13 14 15 15 13 13 14 14 15 15 13 10 9 10 13 13 15 15 16 19 nan nan nan nan nan nan nan nan nan nan nan nan nan nan nan nan nan nan nan nan nan nan nan nan nan nan nan nan nan nan nan nan nan nan nan nan nan nan nan
nan 10 nan 11 12 12 13 15 14 14 14 13 14 15 13 11 12 13 13 14 13 14 14 15 16 nan nan nan nan nan nan nan nan nan nan nan nan nan nan nan nan nan nan nan nan nan nan nan nan nan nan nan nan nan nan nan nan nan nan nan nan nan nan
nan nan nan 8 8 9 9 10 14 13 14 15 13 13 13 13 13 14 13 15 14 14 14 14 15 nan nan nan nan nan nan nan nan nan nan nan nan nan nan nan nan nan nan nan nan nan nan nan nan nan nan nan nan nan nan nan nan nan nan nan nan nan nan
nan nan nan 10 10 9 8 7 7 9 12 14 14 14 14 14 14 14 14 12 13 13 12 15 15 15 nan nan nan nan nan nan nan nan nan nan nan nan nan nan nan nan nan nan nan nan nan nan nan nan nan nan nan nan nan nan nan nan nan nan nan nan nan
nan nan nan 10 12 5 3 3 4 7 7 13 13 12 13 13 12 12 13 14 13 12 13 14 15 14 13 nan nan nan nan nan nan nan nan nan nan nan nan nan nan nan nan nan nan nan nan nan nan nan nan nan nan nan nan nan nan nan nan nan nan nan nan
nan nan nan nan nan nan nan 9 7 8 10 14 14 11 11 10 11 12 14 14 13 14 12 12 14 14 14 13 14 nan nan nan nan nan nan nan nan nan nan nan nan nan nan nan nan nan nan nan nan nan nan nan nan nan nan nan nan nan nan nan nan nan nan
6 nan nan nan nan nan nan nan 10 10 10 14 13 11 11 12 12 13 14 13 14 12 13 12 12 14 15 15 17 nan nan nan nan nan nan nan nan nan nan nan nan nan nan nan nan nan nan nan nan nan nan nan nan nan nan nan nan nan nan nan nan nan nan
nan nan nan nan nan nan nan nan nan 10 10 14 14 13 14 14 13 14 15 13 14 16 15 13 14 15 17 17 17 17 nan nan nan nan nan nan nan nan nan nan nan nan nan nan nan nan nan nan nan nan nan nan nan nan nan nan nan nan nan nan nan nan nan
Wind_Direction
nan nan nan nan nan nan nan nan nan nan nan nan nan nan nan nan nan 213 218 204 196 186 198 194 197 203 210 238 247 262 268 280 292 300 295 299 294 251 224 nan nan nan nan nan nan nan 234 235 238 234 237 246 253 238 226 217 215 221 228 227 224 216 212
nan nan nan nan nan nan nan nan nan nan nan nan nan nan nan nan nan nan 219 216 197 206 196 189 199 200 195 210 232 253 260 276 302 301 298 307 301 248 219 208 nan nan nan nan nan nan nan 246 251 243 238 238 241 240 241 238 222 223 222 229 226 220 215
nan nan nan nan nan nan nan nan nan nan nan nan nan nan nan nan nan nan 221 222 218 218 195 190 188 188 183 180 209 241 253 261 285 287 299 319 316 232 208 201 193 nan nan nan nan nan nan nan 250 255 249 241 235 230 229 242 245 234 234 226 224 219 217
nan nan nan nan nan nan nan nan nan nan nan nan nan nan nan nan nan nan nan 223 226 220 205 195 190 188 180 180 199 226 252 265 270 274 286 336 10 156 184 189 193 198 nan nan nan nan nan nan 239 246 253 244 247 243 237 223 225 234 235 232 229 223 217
nan nan nan nan nan nan nan nan nan nan nan nan nan nan nan nan nan nan 213 216 220 219 211 207 202 196 192 195 195 202 217 234 244 263 275 262 156 152 175 187 195 201 206 nan nan nan nan 229 235 243 248 252 245 242 245 242 241 236 233 230 229 224 222
nan nan nan nan nan nan nan nan nan nan nan nan nan nan nan nan nan nan nan 213 220 220 217 217 217 212 208 207 211 214 205 205 207 226 235 227 214 195 204 208 204 207 211 219 nan nan nan 219 234 247 252 251 247 247 249 252 247 245 244 235 230 228 225
nan nan nan nan nan nan nan nan 204 208 nan nan nan nan nan nan nan 211 214 228 223 221 218 218 220 222 220 217 216 216 215 214 207 195 198 203 204 205 204 206 209 212 211 214 222 223 nan 225 227 239 248 256 261 257 255 254 260 257 250 244 237 232 230
nan nan nan nan nan nan nan 205 202 208 210 213 nan nan nan nan 209 nan 215 226 225 218 217 218 219 225 227 226 222 219 219 216 217 212 197 208 219 216 212 207 208 207 200 199 204 211 nan 224 227 236 241 250 259 261 264 263 267 268 260 249 241 235 232
nan nan nan nan nan nan nan 205 201 199 199 204 nan nan nan nan 219 215 221 226 221 216 211 217 220 223 226 227 226 225 224 223 223 222 214 209 204 218 223 221 224 222 217 212 210 207 nan nan 209 220 236 247 251 258 261 263 262 263 263 256 248 240 236
nan nan nan nan nan nan nan nan 204 200 200 198 205 212 212 219 215 220 220 224 220 215 213 216 218 220 223 226 228 228 230 228 232 229 228 226 220 218 221 218 216 221 227 234 233 225 218 216 217 216 215 216 223 229 232 230 236 252 258 255 252 247 241
nan nan nan nan 211 nan nan 205 208 201 199 201 206 212 216 216 216 223 217 217 217 214 214 215 217 217 219 222 225 226 226 230 232 233 232 236 234 229 230 236 236 224 218 225 235 241 238 232 230 228 230 234 238 241 243 237 227 222 223 232 243 252 248
nan nan nan nan 222 nan nan 208 207 206 202 201 209 210 214 217 218 217 215 214 219 218 217 218 219 219 219 222 225 227 227 227 236 239 236 238 239 230 227 230 235 245 243 230 227 232 244 241 239 240 243 241 230 234 249 249 248 248 241 239 238 231 233
nan nan nan nan nan nan 220 213 208 210 202 203 206 207 206 218 220 224 220 218 221 217 218 220 223 221 222 224 228 232 232 232 234 239 243 245 246 236 227 228 231 238 244 248 251 240 240 240 240 245 246 247 246 241 239 239 241 245 247 246 247 253 243
nan nan nan nan 258 242 230 220 211 202 205 201 204 210 210 222 230 229 228 223 221 216 219 220 220 220 221 225 232 238 239 238 240 240 237 248 256 245 233 228 225 227 237 240 236 238 245 243 240 242 243 247 251 250 247 243 236 232 241 242 243 239 235
nan nan nan nan 266 257 249 236 220 206 202 204 200 206 210 216 220 224 226 228 222 218 221 220 220 219 225 232 235 238 238 239 244 244 241 242 245 247 240 232 229 231 234 230 226 228 232 235 238 243 243 244 248 250 249 245 237 226 228 240 241 239 235
nan nan nan nan 258 255 252 243 227 212 206 205 199 205 203 213 220 223 227 226 224 221 226 224 222 224 226 229 234 239 242 242 244 246 244 241 242 244 244 240 238 239 241 237 234 233 234 239 244 246 248 248 249 249 248 248 241 229 229 238 242 239 235
nan nan nan nan nan nan nan nan 226 216 219 211 206 205 206 210 216 224 228 227 228 229 230 230 228 229 229 231 233 237 244 245 245 247 243 238 238 241 241 244 244 242 246 246 241 237 237 238 246 258 263 261 261 262 262 258 253 242 230 227 231 235 233
nan nan nan nan nan nan nan nan 231 227 231 219 216 205 207 208 218 223 226 229 229 233 234 235 236 235 234 235 236 239 242 246 245 244 243 238 236 239 241 244 247 246 245 246 242 238 236 236 237 238 251 262 260 258 260 258 255 249 245 238 230 224 226
nan nan nan nan nan nan nan 244 244 234 231 227 222 213 212 213 216 222 225 226 230 235 238 240 242 243 240 238 239 240 241 245 246 246 246 243 240 240 243 246 245 246 246 243 239 236 236 237 239 240 243 250 258 257 258 257 250 246 241 242 241 235 227
nan nan nan nan nan 259 nan 249 249 251 250 228 220 214 213 218 221 221 223 226 228 234 238 241 243 246 245 242 242 241 243 247 248 248 249 248 245 243 246 250 249 248 247 246 242 240 239 237 237 240 245 250 254 254 254 253 243 233 230 235 239 240 234
nan nan nan nan 250 246 245 246 nan nan nan nan nan 226 218 220 227 230 230 227 229 232 236 240 244 247 246 245 242 240 242 246 248 248 247 248 246 244 245 249 251 248 248 nan nan nan nan nan 243 238 239 247 257 258 255 252 247 236 232 230 230 236 238
nan nan 253 252 252 260 257 254 244 nan 255 255 248 238 223 218 223 232 236 235 235 235 237 241 244 245 247 246 246 243 244 247 250 248 245 243 243 241 241 nan 249 nan nan nan nan nan nan nan nan nan nan 248 253 255 255 255 253 245 240 232 226 225 226
nan nan 277 277 nan nan 266 nan nan nan 259 257 nan nan nan nan 230 233 239 238 238 241 243 244 246 248 250 251 253 251 251 250 250 252 249 248 248 246 244 nan nan nan nan nan nan nan nan nan nan nan nan 253 252 252 252 255 256 248 239 235 231 224 218
nan nan nan nan nan 257 254 264 250 258 nan nan nan nan nan 245 243 239 242 242 241 241 244 247 250 255 255 254 258 256 257 256 256 256 nan nan nan nan nan nan nan nan nan nan nan nan nan nan nan nan nan nan 252 250 249 251 250 245 237 232 228 224 220
272 269 255 248 240 240 248 256 255 248 nan nan nan nan nan nan 254 244 242 242 241 242 245 249 253 253 255 256 259 258 258 260 259 nan nan nan nan nan nan nan nan nan nan nan nan nan nan nan nan nan nan nan nan nan 249 247 243 240 240 241 241 238 231
268 268 260 nan 258 259 255 239 251 246 nan nan nan nan 247 263 261 246 242 240 239 241 241 242 247 251 254 255 254 256 258 261 263 nan nan nan nan nan nan nan nan nan nan nan nan nan nan nan nan nan nan nan nan nan nan 246 244 244 246 247 249 249 244
nan nan 251 235 nan 237 nan 243 nan nan nan nan nan 241 227 240 254 250 238 240 239 241 237 240 249 253 253 253 254 254 255 257 nan nan nan nan nan nan nan nan nan nan nan nan nan nan nan nan nan nan nan nan nan nan nan nan nan nan nan nan 248 249 245
273 nan nan nan nan 239 237 nan nan nan nan 249 256 249 236 232 243 246 244 235 240 242 248 251 249 250 254 252 254 253 252 nan nan nan nan nan nan nan nan nan nan nan nan nan nan nan nan nan nan nan nan nan nan nan nan nan nan nan nan nan nan nan nan
nan nan nan 256 253 245 237 nan 251 247 241 242 247 246 246 243 234 238 245 246 245 248 252 250 254 251 nan 255 255 257 nan nan nan nan nan nan nan nan nan nan nan nan nan nan nan nan nan nan nan nan nan nan nan nan nan nan nan nan nan nan nan nan nan
nan nan 263 256 245 247 241 237 245 258 246 238 243 249 241 232 240 251 258 255 257 251 252 257 nan nan nan nan nan nan nan nan nan nan nan nan nan nan nan nan nan nan nan nan nan nan nan nan nan nan nan nan nan nan nan nan nan nan nan nan nan nan nan
nan 264 nan 245 267 251 257 256 239 241 248 249 250 250 248 246 248 244 250 263 263 260 254 254 257 nan nan nan nan nan nan nan nan nan nan nan nan nan nan nan nan nan nan nan nan nan nan nan nan nan nan nan nan nan nan nan nan nan nan nan nan nan nan
nan nan nan 255 239 249 250 255 268 257 252 249 247 253 254 253 250 251 252 253 251 253 252 251 256 nan nan nan nan nan nan nan nan nan nan nan nan nan nan nan nan nan nan nan nan nan nan nan nan nan nan nan nan nan nan nan nan nan nan nan nan nan nan
nan nan nan 244 247 249 251 236 236 262 273 264 255 253 255 254 253 249 245 243 263 268 262 257 257 256 nan nan nan nan nan nan nan nan nan nan nan nan nan nan nan nan nan nan nan nan nan nan nan nan nan nan nan nan nan nan nan nan nan nan nan nan nan
nan nan nan 277 268 262 255 253 283 279 269 271 264 256 254 255 256 257 257 246 248 260 266 274 270 272 263 nan nan nan nan nan nan nan nan nan nan nan nan nan nan nan nan nan nan nan nan nan nan nan nan nan nan nan nan nan nan nan nan nan nan nan nan
nan nan nan nan nan nan nan 298 277 266 271 273 276 276 273 259 259 264 262 254 252 258 260 269 280 276 278 276 269 nan nan nan nan nan nan nan nan nan nan nan nan nan nan nan nan nan nan nan nan nan nan nan nan nan nan nan nan nan nan nan nan nan nan
242 nan nan nan nan nan nan nan 271 272 273 278 279 276 269 274 272 267 265 268 268 258 258 261 269 280 277 276 279 nan nan nan nan nan nan nan nan nan nan nan nan nan nan nan nan nan nan nan nan nan nan nan nan nan nan nan nan nan nan nan nan nan nan
nan nan nan nan nan nan nan nan nan 281 279 280 280 278 277 270 264 270 271 266 262 271 267 263 260 267 275 274 276 279 nan nan nan nan nan nan nan nan nan nan nan nan nan nan nan nan nan nan nan nan nan nan nan nan nan nan nan nan nan nan nan nan nan